Home   Weather   Hebron   Past weeks

Flag for Palestinian Territories Past Weather in Hebron, West Bank, Palestinian Territories — Yesterday and Last 2 Weeks

Now
79 °F

Passing clouds.


Feels Like: 81 °F
Forecast: 66 / 79 °F
Wind: 3 mph from North

Location: Ben Gurion International Airport

Current Time: Sep 1, 2016 at 2:38:01 AM

Latest Report: Sep 1, 2016 at 2:20 AM


Visibility: N/A

Pressure: 29.83 "Hg (26.93 "Hg at 894m altitude)

Humidity: 65%

Dew Point: 66 °F

Location of HebronLocation

Past Weather in Hebron — Graph

°F

Hebron Temperature Yesterday

Maximum temperature yesterday: 88 °F (at 12:50 PM)
Minimum temperature yesterday: 79 °F (at 12:20 AM)
Average temperature yesterday: 82 °F

High & Low Weather Summary for the Past Weeks

 TemperatureHumidityPressure
High90 °F (Aug 19, 10:50 AM)83% (Aug 19, 2:50 AM)29.95 "Hg (Aug 19, 2:50 AM)
Low75 °F (Aug 17, 4:50 AM)43% (Aug 27, 12:50 PM)29.71 "Hg (Aug 17, 3:50 PM)
Average83 °F65%29.82 "Hg
* Reported Aug 17 1:20 AM — Sep 1 1:20 AM, Hebron, Weather by CustomWeather, © 2016

Note: Actual official high and low records may vary slightly from our data, if they occured in-between our weather recording intervals... More about our weather records

Advertising

Hebron Weather History for the Previous 24 Hours

Scroll right to see more
 ConditionsComfort  
Time TempWeatherWind HumidityBarometerVisibility
1:20 AM
Thu, Sep 1
79 °FPassing clouds.2 mph65%29.83 "HgN/A
12:50 AM81 °FPassing clouds.2 mph66%29.83 "HgN/A
12:20 AM79 °FPassing clouds.3 mph70%29.86 "HgN/A
11:50 PM
Wed, Aug 31
79 °FPassing clouds.2 mph70%29.86 "HgN/A
11:20 PM79 °FPassing clouds.2 mph65%29.86 "HgN/A
10:50 PM81 °FPassing clouds.2 mph66%29.86 "HgN/A
10:20 PM81 °FPassing clouds.2 mph62%29.86 "HgN/A
9:50 PM81 °FPassing clouds.5 mph62%29.86 "HgN/A
9:20 PM81 °FPassing clouds.6 mph66%29.86 "HgN/A
8:50 PM81 °FPassing clouds.6 mph66%29.86 "HgN/A
8:20 PM82 °FPassing clouds.8 mph62%29.86 "HgN/A
7:50 PM82 °FPassing clouds.9 mph62%29.83 "HgN/A
7:20 PM82 °FPassing clouds.10 mph62%29.83 "HgN/A
6:50 PM82 °FPassing clouds.12 mph66%29.83 "HgN/A
6:20 PM84 °FPassing clouds.12 mph62%29.83 "HgN/A
5:50 PM84 °FPassing clouds.13 mph58%29.83 "HgN/A
5:20 PM86 °FPassing clouds.10 mph59%29.83 "HgN/A
4:50 PM86 °FPassing clouds.10 mph55%29.83 "HgN/A
4:20 PM86 °FPassing clouds.12 mph59%29.83 "HgN/A
3:50 PM88 °FPassing clouds.13 mph55%29.83 "HgN/A
3:20 PM88 °FPassing clouds.10 mph52%29.83 "HgN/A
2:50 PM88 °FPassing clouds.9 mph49%29.83 "HgN/A
2:20 PM88 °FPassing clouds.10 mph49%29.83 "HgN/A
1:50 PM88 °FPassing clouds.10 mph49%29.86 "HgN/A
1:20 PM88 °FScattered clouds.9 mph52%29.86 "HgN/A
12:50 PM88 °FScattered clouds.10 mph52%29.86 "HgN/A
12:20 PM86 °FPartly sunny.9 mph55%29.86 "HgN/A
11:50 AM86 °FPartly sunny.7 mph55%29.86 "HgN/A
11:20 AM86 °FPartly sunny.7 mph55%29.86 "HgN/A
10:50 AM84 °FScattered clouds.12 mph58%29.86 "HgN/A
10:20 AM84 °FScattered clouds.8 mph58%29.86 "HgN/A
9:50 AM84 °FScattered clouds.3 mph58%29.86 "HgN/A
9:20 AM82 °FScattered clouds.3 mph62%29.86 "HgN/A
8:50 AM82 °FPartly sunny.3 mph62%29.86 "HgN/A
8:20 AM82 °FPassing clouds.2 mph66%29.86 "HgN/A
7:50 AM81 °FPassing clouds.3 mph70%29.86 "HgN/A
7:20 AM79 °FPassing clouds.3 mph74%29.86 "HgN/A
6:50 AM79 °FPassing clouds.3 mph74%29.86 "HgN/A
6:20 AM79 °FPassing clouds.3 mph74%29.86 "HgN/A
5:50 AM81 °FPassing clouds.6 mph70%29.86 "HgN/A
5:20 AM79 °FPassing clouds.5 mph74%29.86 "HgN/A
4:50 AM79 °FPassing clouds.2 mph70%29.86 "HgN/A
4:20 AM79 °FPassing clouds.3 mph74%29.86 "HgN/A
3:50 AM79 °FPassing clouds.3 mph74%29.86 "HgN/A
3:20 AM79 °FPassing clouds.1 mph70%29.86 "HgN/A
2:50 AM79 °FPassing clouds.2 mph70%29.86 "HgN/A
2:20 AM79 °FPassing clouds.1 mph70%29.86 "HgN/A
Weather by CustomWeather, © 2016

See weather overviewHow to use our weather pages